Погода в Семипалатинске

Хотите узнать прогноз погоды в Семипалатинске? Тогда Вам сюда: Погода в Семипалатинске

Поиск расширенной информации на нашем сайте:

Полезная информация:

Новости сайта



14.11.2019
Обновлён Долгосрочный прогноз погоды по России и другим странам хСССР на ноябрь-декабрь 2019 года.
Опубликованы прогностические карты: Предварительный прогноз на декабрь 2019 года, Предварительный прогноз на январь 2020 года, Предварительная схема синоптических процессов на декабрь 2019 г..

11.11.2019
Обновлены Долгосрочный прогноз погоды по России и другим странам хСССР на ноябрь-декабрь 2019 года и Предварительный прогноз на зиму 2019/2020 годов

04.11.2019
Опубликован Долгосрочный прогноз погоды по России и другим странам хСССР на ноябрь 2019 года
Сравнение прогнозируемой аномалии приземной температуры воздуха на ноябрь 2019 года по разным моделям
Предварительный прогноз на зиму 2019/2020 года




Погода в Семипалатинске - сегодня

Время (UTC), дата Ветер
(°,м/с) 
Видим.   Явления Облачность Т
(°С)
Тd
(°С)
f(%) Тe
(°С)
Pmin
(гПа)
dP
(гПа)
Po
(мм)
O2
(г/м3)
Тmin Tmax R s Состояние
почвы
21 17.11.19 200 (Ю) н/о    9/9 1000 м 
[Sc]
-2.6 -8.7 63 -4  1025.1  -1.8  750  306           
00 18.11.19 200 (Ю) н/о    10/10 600 м кучево-дожд. 
[Cb calv]
-1.2 -9.6 53 -2  1023  -1.9  749  304           
03 18.11.19 180 (Ю) 10 км    10/10 600 м кучево-дожд. 
[Cb calv]
-0.5 -9.9 49 -3  1022.4  -0.5  748  303           
06 18.11.19 200 (Ю) 10 км    10/10 600 м кучево-дожд. 
[Cb calv]
+1 -8.4 49 -2  1020.7  -1.6  747  301  -3         
09 18.11.19 250 (З) 10 км    10/10 600 м кучево-дожд. 
[Cb calv]
+1.6 -7.9 49 -1  1019.7  -0.9  746  300           
12 18.11.19 270 (З) н/о  слаб. ливневой снег  10/10 600 м кучево-дожд. 
[Cb calv]
-1 -4.6 77 -2  1021.3  1.4  748  303           
15 18.11.19 230 (ЮЗ) н/о  слаб. ливневой снег  10/10 600 м кучево-дожд. 
[Cb calv]
-1.6 -2.7 92 -3  1021.8  0.4  748  303    +2.1  0.2     
18 18.11.19 200 (Ю) н/о  слаб. ливневой снег  10/10 600 м кучево-дожд. 
[Cb calv]
-1.4 -2.5 92 -2  1021.1  -0.7  747  303    +2.1  0.2     
21 18.11.19 200 (Ю) н/о  слаб. ливневой снег  10/10 600 м кучево-дожд. 
[Cb calv]
-1.2 -2.8 89 -2  1019.7  -1.3  746  302           
00 19.11.19 тихо ()   н/о  слаб. ливневой снег  10/10 600 м кучево-дожд. 
[Cb calv]
-1.8 -3.9 86 -2  1018.5  -1.2  745  303           
03 19.11.19 тихо ()   2000 м  ливневой снег  10/10 600 м кучево-дожд. 
[Cb calv]
-2.4 -3 96 -2  1017.8  -0.8  745  303      равномерный
сухой снег
100% 
06 19.11.19 270 (З) 4000 м  слаб. ливневой снег  10/10 600 м кучево-дожд. 
[Cb calv]
-1.9 -3.7 87 -3  1017.1  -0.6  744  302  -2.4       
09 19.11.19 270 (З) 4000 м  снег{ливн. осадки}  10/10 600 м 
[Ns]
-8.6 -11 83 -14  1019.7  1.9  746  311           
12 19.11.19 290 (З) н/о  слаб. снег{ливн. осадки}  10/10 600 м 
[Ns]
-13.5 -16.4 79 -18  1021.7  1.5  747  318           
15 19.11.19 320 (СЗ) н/о  слаб. снег  10/10 600 м 
[Ns]
-16.2 -19.3 77 -21  1022.9  0.9  748  322    -1.7     
18 19.11.19 320 (СЗ) н/о  слаб. снег  10/10 1000 м 
[Ns]
-18.2 -21.7 74 -21  1024.2  748  325    -1.7     
21 19.11.19 340 (С) н/о  {снег}  9/8 1000 м средняя 
[Sc|Ac trans]
-20.8 -24.7 71 -24  1026.6  2.1  750  329           
00 20.11.19 320 (СЗ) н/о  {снег}  5/0 средняя 
[Ac trans]
-23.3 -26.8 73 -29  1029.3  2.4  752  333           
03 20.11.19 тихо ()   10 км    ясно 
-26.6 -29.4 77 -27  1032.7  2.9  754  338      10  равномерный
сухой снег
100% 
06 20.11.19 тихо ()   10 км    ясно 
-24.2 -28.6 67 -24  1034.3  1.8  755  336  -26.6       
09 20.11.19 тихо ()   10 км    4/0 средняя, верхняя 
[Ac trans|Ci fib]
-22.4 -27.9 61 -22  1034.8  0.7  756  334           
12 20.11.19 270 (З) н/о  ледяные иглы  3/0 средняя 
[Ac trans]
-23.9 -27.7 71 -27  1036.4  1.4  757  336           
15 20.11.19 тихо ()   н/о  слаб. снег  10/0 средняя 
[As op]
-23.8 -27.3 73 -24  1037.7  1.3  758  336    -22.4  0.2     
18 20.11.19 тихо ()   н/о  слаб. снег  10/0 средняя 
[As op]
-25 -28.3 74 -25  1038.5  0.6  758  338    -22.4  0.2     
21 20.11.19 тихо ()   н/о  {снег}  6/0 средняя 
[Ac trans]
-27.1 -29.9 77 -27  1039.1  0.4  759  341           
Время (UTC), дата Ветер
(°,м/с) 
Видим.   Явления Облачность Т
(°С)
Тd
(°С)
f(%) Тe
(°С)
Pmin
(гПа)
dP
(гПа)
Po
(мм)
O2
(г/м3)
Тmin Tmax R s Состояние
почвы

Для получения пояснительной информации подведите курсор к названию столбца.

ПОГОДА в Семипалатинске - архив

Всё, что Вы хотите узнать о погоде в Семипалатинске - удобно и подробно!

Выберите нужную дату (начиная с 1 января 2019* года) и нажмите кнопку "Найти".
Будут отображены архивные сводки погоды по пункту Семипалатинск, начиная с указанной даты.


Отображать данные в формате CSV (для использования в таблицах Excel)


Внимание! Наш архив погоды предназначен исключительно для личного некоммерческого использования в познавательных целях. Если Вам необходимы официальные справки о состоянии погоды (для производственных, юридических, коммерческих и т.п. целей), обращайтесь в органы Росгидромета.

*Примечание: данная дата относится к архиву по метеостанциям СССР (Россия, СНГ, Балтия).
Архив по метеостанциям Зарубежной Европы и Азии (кроме Китая) хранится 10 дней, по другим регионам земного шара (Китай, Африка, Америка, Австралия, Океания) - 1 день.

Семипалатинск - район местоположения метеостанции


Название, широта, долгота, высота метеостанции:
Семипалатинск 50.4°ш. 80.3°д. 196 м над ур. моря [Казахстан]

Дополнительная информация

В oтличие oт бoльшинства пoгoдных сайтoв мы публикуем пoдрoбную метеoинфoрмацию в детальнoм прoфессиoнальнoм фoрмате.

Характеристики температуры и влажнoсти вoздуха измеряются на высoте 2 м в тени вдали oт зданий и деревьев.
Скoрoсть ветра измеряется на высoте 10 м (на урoвне рoста челoвека скoрoсть ветра ниже в 1.5-2 раза). Если метеoстанция нахoдится в гoрoде или в лесу, тo скoрoсть ветра занижена на 2-4 м/с пo сравнению с oткрытым местoм. Скoрoсть ветра над акватoриями крупных рек и oзёр, а также на вершинах хoлмoв на 2-5 м/с выше, чем в oбычных услoвиях.
Атмoсфернoе давление в разных тoчках местнoсти мoжет значительнo oтличаться oт давления на метеoстанции, в зависимoсти oт услoвий рельефа (при пoдъёме на 10 м давление пoнижается примернo на 1 мм рт.ст.).